カタログに戻る

STARLINK-34633

運用中通信VLEO
NORAD 64804·PAYLOAD·🇺🇸 United States

打ち上げ Jul 16, 2025 から Vandenberg Space Force Base

Loading…

次のパス (今後24時間)

TLE

最新Source: CelesTrak SupGP

元期: Sep 14, 2026, 22:58 UTC

1 64804C 25150Q   26257.95743056 -.00050016  00000+0 -41924-2 0  2578
2 64804  70.0024  17.2256 0003178 270.8025 232.4091 14.98348222    18

AllMySatでSTARLINK-34633をリアルタイム追跡

Download on the App Store